FW5359 Weather Reports


time (UTC)temp
C
wind
direction
speed
KPH
gust
KPH
rain 1hr
cm
rain 24hr
cm
rain mn
cm
humidity
%
barometer
mb
20260508222432 23 111 3.2 11.3 0.00 0.00 0.00 80 1010.2
20260508221926 23 111 3.2 6.4 0.00 0.00 0.00 80 1010.4
20260508221421 23 111 3.2 9.7 0.00 0.00 0.00 81 1010.4
20260508221145 23 111 1.6 9.7 0.00 0.00 0.00 81 1010.4
20260508220409 23 111 1.6 9.7 0.00 0.00 0.00 81 1010.4
20260508215904 23 111 1.6 9.7 0.00 0.00 0.00 81 1010.5
20260508215357 23 112 3.2 6.4 0.00 0.00 0.00 81 1010.5
20260508215122 23 112 3.2 9.7 0.00 0.00 0.00 80 1010.5
20260508214346 23 112 3.2 9.7 0.00 0.00 0.00 80 1010.5
20260508213839 23 111 3.2 9.7 0.00 0.00 0.00 80 1010.6
20260508213333 23 111 3.2 12.9 0.00 0.00 0.00 80 1010.6
20260508212827 23 115 4.8 12.9 0.00 0.00 0.00 79 1010.6
20260508212321 23 123 3.2 11.3 0.00 0.00 0.00 79 1010.7
20260508211815 23 73 3.2 11.3 0.00 0.00 0.00 79 1010.7
20260508211309 23 120 3.2 9.7 0.00 0.00 0.00 79 1010.8
20260508210803 23 117 3.2 9.7 0.00 0.00 0.00 79 1011.0
20260508210256 23 113 3.2 9.7 0.00 0.00 0.00 79 1011.0
20260508205750 23 126 3.2 9.7 0.00 0.00 0.00 79 1011.1
20260508205245 23 128 1.6 9.7 0.00 0.00 0.00 79 1011.1
20260508204739 23 114 1.6 6.4 0.00 0.00 0.00 79 1011.3
20260508204233 23 113 3.2 9.7 0.00 0.00 0.00 79 1011.3
20260508203727 23 113 3.2 9.7 0.00 0.00 0.00 79 1011.4
20260508203221 23 113 3.2 9.7 0.00 0.00 0.00 79 1011.4
20260508202714 23 115 3.2 11.3 0.00 0.00 0.00 79 1011.4
20260508202208 23 123 3.2 12.9 0.00 0.00 0.00 78 1011.4
20260508201702 23 121 3.2 11.3 0.00 0.00 0.00 78 1011.3
20260508201427 23 108 3.2 11.3 0.00 0.00 0.00 78 1011.3
20260508200651 23 165 3.2 12.9 0.00 0.00 0.00 78 1011.4
20260508200145 24 99 3.2 12.9 0.00 0.00 0.00 78 1011.3
20260508195910 24 154 3.2 12.9 0.00 0.00 0.00 78 1011.4
20260508195132 24 80 3.2 12.9 0.00 0.00 0.00 78 1011.4
20260508194626 23 82 3.2 8.0 0.00 0.00 0.00 79 1011.5
20260508194120 23 81 3.2 8.0 0.00 0.00 0.00 78 1011.5
20260508193615 24 81 3.2 12.9 0.00 0.00 0.00 78 1011.6
20260508193109 23 74 3.2 12.9 0.00 0.00 0.00 78 1011.5
20260508192559 23 75 3.2 12.9 0.00 0.00 0.00 78 1011.6
20260508192325 23 82 3.2 14.5 0.00 0.00 0.00 78 1011.6
20260508191550 24 117 3.2 14.5 0.00 0.00 0.00 77 1011.6
20260508191043 24 166 3.2 12.9 0.00 0.00 0.00 78 1011.6
20260508190543 24 167 3.2 12.9 0.00 0.00 0.00 78 1011.7
20260508190040 23 76 3.2 11.3 0.00 0.00 0.00 79 1011.7
20260508185540 23 106 3.2 8.0 0.00 0.00 0.00 79 1011.8
20260508185040 23 102 3.2 6.4 0.00 0.00 0.00 79 1011.9
20260508184540 23 103 1.6 6.4 0.00 0.00 0.00 79 1011.9
20260508184040 23 132 1.6 8.0 0.00 0.00 0.00 79 1012.1
20260508183539 23 132 3.2 11.3 0.00 0.00 0.00 79 1012.1
20260508183040 23 56 3.2 11.3 0.00 0.00 0.00 78 1012.1
20260508182540 23 129 3.2 9.7 0.00 0.00 0.00 80 1012.1
20260508181536 22 124 3.2 12.9 0.00 0.00 0.00 82 1012.2
20260508181035 22 124 3.2 12.9 0.00 0.00 0.00 82 1012.4
20260508180535 22 74 3.2 8.0 0.00 0.00 0.00 83 1012.4
20260508180036 21 71 1.6 8.0 0.00 0.00 0.00 83 1012.7
20260508175538 21 63 1.6 6.4 0.00 0.00 0.00 84 1012.8
20260508175039 21 61 1.6 6.4 0.00 0.00 0.00 83 1012.9
20260508174538 21 59 1.6 6.4 0.00 0.00 0.00 83 1013.0
20260508174039 21 59 1.6 4.8 0.00 0.00 0.00 83 1013.1
20260508173531 21 59 1.6 4.8 0.00 0.00 0.00 83 1013.2
20260508173025 21 59 1.6 4.8 0.00 0.00 0.00 84 1013.2
20260508172520 21 56 0.0 4.8 0.00 0.00 0.00 84 1013.2
20260508172011 21 56 0.0 1.6 0.00 0.00 0.00 84 1013.3
20260508171505 21 56 0.0 1.6 0.00 0.00 0.00 84 1013.3
20260508171002 20 56 0.0 4.8 0.00 0.00 0.00 84 1013.4
20260508170455 20 56 1.6 6.4 0.00 0.00 0.00 84 1013.4
20260508165949 20 56 1.6 6.4 0.00 0.00 0.00 84 1013.4
20260508165444 20 55 0.0 4.8 0.00 0.00 0.00 84 1013.4
20260508164938 20 55 0.0 4.8 0.00 0.00 0.00 84 1013.4
20260508164432 20 55 1.6 4.8 0.00 0.00 0.00 84 1013.5
20260508163926 20 55 1.6 4.8 0.00 0.00 0.00 85 1013.6
20260508163419 20 55 0.0 4.8 0.00 0.00 0.00 85 1013.8
20260508162913 20 55 1.6 6.4 0.00 0.00 0.00 85 1013.7
20260508162408 19 55 1.6 6.4 0.00 0.00 0.00 85 1013.7
20260508161901 19 55 1.6 6.4 0.00 0.00 0.00 86 1013.7
20260508161355 19 55 3.2 9.7 0.00 0.00 0.00 87 1013.7
20260508160850 18 57 3.2 9.7 0.00 0.00 0.00 87 1013.8
20260508160344 18 55 1.6 6.4 0.00 0.00 0.00 87 1013.9
20260508155837 18 56 1.6 6.4 0.00 0.00 0.00 88 1013.9
20260508155331 18 57 1.6 6.4 0.00 0.00 0.00 88 1014.0
20260508154826 18 56 1.6 8.0 0.00 0.00 0.00 88 1014.2
20260508154320 17 56 1.6 8.0 0.00 0.00 0.00 87 1014.2
20260508153814 17 57 1.6 6.4 0.00 0.00 0.00 88 1014.3
20260508153308 17 57 1.6 6.4 0.00 0.00 0.00 87 1014.3
20260508152801 17 57 1.6 8.0 0.00 0.00 0.00 87 1014.4
20260508152256 17 58 1.6 8.0 0.00 0.00 0.00 87 1014.4
20260508151750 17 58 1.6 6.4 0.00 0.00 0.00 87 1014.7
20260508151244 17 59 1.6 6.4 0.00 0.00 0.00 87 1014.5
20260508150737 17 59 1.6 8.0 0.00 0.00 0.00 87 1014.6
20260508150231 17 59 1.6 8.0 0.00 0.00 0.00 88 1014.6
20260508145725 17 59 1.6 6.4 0.00 0.00 0.00 88 1014.7
20260508145220 17 59 1.6 9.7 0.00 0.00 0.00 88 1014.7
20260508144944 17 59 3.2 9.7 0.00 0.00 0.00 88 1014.6
20260508144208 17 60 3.2 9.7 0.00 0.00 0.00 88 1014.5
20260508143701 17 62 1.6 8.0 0.00 0.00 0.00 88 1014.6
20260508143155 16 65 1.6 8.0 0.00 0.00 0.00 88 1014.6
20260508142922 16 65 1.6 8.0 0.00 0.00 0.00 88 1014.6
20260508142143 16 68 3.2 8.0 0.00 0.00 0.00 88 1014.7
20260508141637 16 68 3.2 9.7 0.00 0.00 0.00 88 1014.7
20260508141131 16 69 3.2 9.7 0.00 0.00 0.00 87 1014.6
20260508140626 16 71 1.6 8.0 0.00 0.00 0.00 87 1014.7
20260508140119 16 73 1.6 8.0 0.00 0.00 0.00 87 1014.8
20260508135613 16 73 3.2 8.0 0.00 0.00 0.00 87 1014.8
20260508135109 16 76 3.2 8.0 0.00 0.00 0.00 87 1014.9
20260508134602 16 76 1.6 8.0 0.00 0.00 0.00 87 1014.7
20260508134329 16 78 1.6 6.4 0.00 0.00 0.00 87 1014.7
20260508133559 16 78 1.6 6.4 0.00 0.00 0.00 87 1014.5
20260508133100 16 78 1.6 6.4 0.00 0.00 0.00 87 1014.4
20260508132557 16 80 1.6 6.4 0.00 0.00 0.00 87 1014.4
20260508132328 16 80 1.6 6.4 0.00 0.00 0.00 87 1014.3
20260508131553 16 80 1.6 4.8 0.00 0.00 0.00 87 1014.4
20260508131051 16 59 0.0 3.2 0.00 0.00 0.00 87 1014.2
20260508130551 16 55 0.0 3.2 0.00 0.00 0.00 87 1014.3
20260508130052 16 55 0.0 3.2 0.00 0.00 0.00 88 1014.1
20260508125549 16 55 1.6 4.8 0.00 0.00 0.00 87 1014.0
20260508125047 16 55 1.6 6.4 0.00 0.00 0.00 87 1014.2
20260508124816 16 55 1.6 6.4 0.00 0.00 0.00 87 1014.4
20260508124047 16 55 1.6 4.8 0.00 0.00 0.00 87 1014.5
20260508123541 16 55 0.0 3.2 0.00 0.00 0.00 87 1014.7
20260508123040 16 55 1.6 4.8 0.00 0.00 0.00 87 1014.5
20260508122537 16 55 1.6 4.8 0.00 0.00 0.00 86 1014.5
20260508122035 16 55 1.6 4.8 0.00 0.00 0.00 86 1014.5
20260508121533 16 55 1.6 4.8 0.00 0.00 0.00 86 1014.4
20260508121032 16 55 0.0 3.2 0.00 0.00 0.00 85 1014.4
20260508120529 16 55 0.0 6.4 0.00 0.00 0.00 85 1014.6
20260508120300 16 55 1.6 8.0 0.00 0.00 0.00 84 1014.7
20260508115529 16 55 3.2 8.0 0.00 0.00 0.00 83 1014.9
20260508115029 16 55 1.6 6.4 0.00 0.00 0.00 83 1015.0
20260508114528 16 55 1.6 6.4 0.00 0.00 0.00 83 1014.9
20260508114028 16 55 3.2 8.0 0.00 0.00 0.00 83 1015.3
20260508113529 16 55 1.6 8.0 0.00 0.00 0.00 84 1014.8
20260508113029 16 51 1.6 9.7 0.00 0.00 0.00 85 1014.8
20260508112529 16 52 1.6 9.7 0.00 0.00 0.00 85 1014.8
20260508112028 16 50 1.6 8.0 0.00 0.00 0.00 85 1014.5
20260508111528 16 49 3.2 9.7 0.00 0.00 0.00 85 1014.4
20260508111029 16 38 3.2 9.7 0.00 0.00 0.00 85 1014.6
20260508110529 16 66 3.2 9.7 0.00 0.00 0.00 85 1014.9
20260508110029 16 67 1.6 4.8 0.00 0.00 0.00 85 1014.8
20260508105527 16 67 1.6 4.8 0.00 0.00 0.00 85 1014.8
20260508105026 16 67 1.6 6.4 0.00 0.00 0.00 85 1014.7
20260508104526 16 67 1.6 6.4 0.00 0.00 0.00 85 1014.6
20260508104027 16 67 1.6 6.4 0.00 0.00 0.00 84 1014.6
20260508103525 16 60 1.6 6.4 0.00 0.00 0.00 85 1014.7
20260508103024 16 59 1.6 6.4 0.00 0.00 0.00 85 1015.0
20260508102518 16 59 0.0 6.4 0.00 0.00 0.00 85 1015.3
20260508102012 16 59 0.0 6.4 0.00 0.00 0.00 85 1015.3
20260508101506 16 59 0.0 4.8 0.00 0.00 0.00 85 1015.0
20260508101001 16 59 0.0 3.2 0.00 0.00 0.00 85 1014.7
20260508095948 16 59 0.0 4.8 0.00 0.00 0.00 85 1014.5
20260508095442 16 59 0.0 3.2 0.00 0.00 0.00 85 1014.6
20260508094936 16 59 0.0 6.4 0.00 0.00 0.00 85 1014.7
20260508094701 16 59 1.6 6.4 0.00 0.00 0.00 85 1014.6
20260508093418 16 59 1.6 9.7 0.00 0.00 0.00 85 1014.6
20260508092912 16 61 1.6 9.7 0.00 0.00 0.00 84 1014.6
20260508092405 16 66 0.0 4.8 0.00 0.00 0.00 84 1014.5
20260508091900 16 66 1.6 4.8 0.00 0.00 0.00 83 1014.4
20260508091354 17 66 1.6 6.4 0.00 0.00 0.00 83 1014.0
20260508090847 17 66 1.6 6.4 0.00 0.00 0.00 82 1013.7
20260508090342 17 66 1.6 4.8 0.00 0.00 0.00 82 1013.9
20260508090107 17 65 1.6 8.0 0.00 0.00 0.00 81 1014.7
20260508085330 17 65 1.6 8.0 0.00 0.00 0.00 81 1015.0
20260508084823 17 66 1.6 6.4 0.00 0.00 0.00 81 1014.7
20260508084317 17 66 1.6 4.8 0.00 0.00 0.00 81 1014.5
20260508083812 17 66 0.0 4.8 0.00 0.00 0.00 81 1015.2
20260508083306 17 66 0.0 4.8 0.00 0.00 0.00 80 1015.2
20260508082800 17 66 1.6 4.8 0.00 0.00 0.00 80 1014.8
20260508082254 17 66 1.6 4.8 0.00 0.00 0.00 80 1015.0
20260508081747 17 66 1.6 6.4 0.00 0.00 0.00 80 1014.9
20260508081242 17 66 3.2 9.7 0.00 0.00 0.00 80 1015.0
20260508080736 17 66 3.2 9.7 0.00 0.00 0.00 80 1015.0
20260508080230 17 74 3.2 6.4 0.00 0.00 0.00 77 1015.0
20260508075724 17 74 1.6 6.4 0.00 0.00 0.00 78 1015.3
20260508075218 17 74 1.6 4.8 0.00 0.00 0.00 77 1015.2
20260508074712 17 74 0.0 3.2 0.00 0.00 0.00 78 1015.3
20260508074205 17 74 0.0 3.2 0.00 0.00 0.00 77 1015.3
20260508073700 17 74 1.6 4.8 0.00 0.00 0.00 77 1015.5
20260508073154 17 74 1.6 6.4 0.00 0.00 0.00 77 1015.7
20260508072648 17 74 1.6 6.4 0.00 0.00 0.00 76 1015.6
20260508072141 17 74 1.6 4.8 0.00 0.00 0.00 76 1015.6
20260508071636 17 74 1.6 4.8 0.00 0.00 0.00 76 1015.6
20260508071130 17 74 1.6 4.8 0.00 0.00 0.00 75 1015.7
20260508070625 17 74 1.6 4.8 0.00 0.00 0.00 75 1015.8
20260508070349 17 74 1.6 3.2 0.00 0.00 0.00 75 1015.7
20260508065611 17 74 1.6 3.2 0.00 0.00 0.00 75 1015.7
20260508065105 17 74 0.0 3.2 0.00 0.00 0.00 75 1015.7
20260508064600 17 74 0.0 4.8 0.00 0.00 0.00 75 1015.8
20260508064325 17 74 0.0 4.8 0.00 0.00 0.00 74 1015.8
20260508063819 17 74 0.0 0.0 0.00 0.00 0.00 74 1015.9
20260508063041 17 74 0.0 0.0 0.00 0.00 0.00 74 1016.1
20260508062542 17 74 0.0 0.0 0.00 0.00 0.00 74 1015.9
20260508062040 17 74 1.6 8.0 0.00 0.00 0.00 74 1015.5
20260508061538 17 74 1.6 8.0 0.00 0.00 0.00 74 1015.4
20260508061036 17 74 1.6 8.0 0.00 0.00 0.00 74 1015.3
20260508060534 17 74 3.2 8.0 0.00 0.00 0.00 74 1015.0
20260508060034 17 76 3.2 8.0 0.00 0.00 0.00 74 1015.0
20260508055534 17 67 3.2 9.7 0.00 0.00 0.00 74 1014.7
20260508055032 17 61 1.6 9.7 0.00 0.00 0.00 74 1015.4
20260508054532 17 351 0.0 4.8 0.00 0.00 0.00 74 1015.8
20260508054032 17 348 0.0 3.2 0.00 0.00 0.00 73 1015.9
20260508053532 17 348 1.6 3.2 0.00 0.00 0.00 73 1016.0
20260508053303 18 348 0.0 1.6 0.00 0.00 0.00 73 1016.1
20260508052532 18 348 0.0 3.2 0.00 0.00 0.00 73 1016.2
20260508052032 17 348 0.0 3.2 0.00 0.00 0.00 73 1016.7
20260508051530 17 348 0.0 3.2 0.00 0.00 0.00 72 1016.9
20260508051030 17 348 0.0 3.2 0.00 0.00 0.00 72 1016.6
20260508050532 17 348 0.0 0.0 0.00 0.00 0.00 72 1016.4
20260508050305 17 348 0.0 1.6 0.00 0.00 0.00 72 1016.4
20260508045759 17 348 0.0 4.8 0.00 0.00 0.00 72 1016.1
20260508045021 17 348 1.6 4.8 0.00 0.00 0.00 72 1016.1
20260508044516 17 347 1.6 8.0 0.00 0.00 0.00 72 1016.3
20260508044009 17 347 1.6 8.0 0.00 0.00 0.00 72 1016.5
20260508043503 17 290 3.2 12.9 0.00 0.00 0.00 73 1016.4
20260508043228 17 289 4.8 12.9 0.00 0.00 0.00 73 1016.7
20260508042452 17 304 3.2 8.0 0.00 0.00 0.00 73 1016.2
20260508041946 17 74 3.2 8.0 0.00 0.00 0.00 72 1015.0
20260508041440 17 74 3.2 8.0 0.00 0.00 0.00 72 1014.7
20260508040933 17 74 3.2 12.9 0.00 0.00 0.00 72 1014.6
20260508040427 17 74 3.2 12.9 0.00 0.00 0.00 72 1014.6
20260508035921 17 74 4.8 12.9 0.00 0.00 0.00 71 1014.3
20260508035415 17 91 4.8 12.9 0.00 0.00 0.00 71 1014.4
20260508034910 17 90 3.2 11.3 0.00 0.00 0.00 71 1014.8
20260508034634 18 61 3.2 8.0 0.00 0.00 0.00 72 1015.3
20260508033857 18 59 3.2 8.0 0.00 0.00 0.00 72 1015.3
20260508033351 18 46 3.2 8.0 0.00 0.00 0.00 72 1015.6
20260508033116 18 41 3.2 8.0 0.00 0.00 0.00 72 1015.7
20260508032339 18 40 1.6 6.4 0.00 0.00 0.00 72 1015.6
20260508031833 18 38 1.6 4.8 0.00 0.00 0.00 72 1015.8
20260508031328 18 38 1.6 4.8 0.00 0.00 0.00 71 1016.0
20260508030822 18 38 1.6 8.0 0.00 0.00 0.00 71 1016.2
20260508030316 18 38 1.6 8.0 0.00 0.00 0.00 71 1016.3
20260508025810 18 37 0.0 4.8 0.00 0.00 0.00 71 1016.4
20260508024758 18 37 0.0 0.0 0.00 0.00 0.00 71 1016.5
20260508024251 18 37 0.0 0.0 0.00 0.00 0.00 71 1016.3
20260508023745 18 37 0.0 1.6 0.00 0.00 0.00 70 1016.1
20260508023240 18 37 0.0 3.2 0.00 0.00 0.00 70 1016.1
20260508022734 18 37 0.0 4.8 0.00 0.00 0.00 69 1016.2
20260508022228 18 37 0.0 4.8 0.00 0.00 0.00 70 1016.2
20260508021721 18 37 0.0 0.0 0.00 0.00 0.00 70 1016.1
20260508021448 18 37 0.0 0.0 0.00 0.00 0.00 70 1015.8
20260508020717 18 37 0.0 0.0 0.00 0.00 0.00 70 1015.9
20260508020215 18 37 0.0 0.0 0.00 0.00 0.00 70 1016.0
20260508015713 18 37 0.0 0.0 0.00 0.00 0.00 70 1015.9
20260508015212 18 37 0.0 0.0 0.00 0.00 0.00 70 1015.4
20260508014712 18 37 0.0 0.0 0.00 0.00 0.00 69 1015.0
20260508014209 18 37 1.6 6.4 0.00 0.00 0.00 69 1015.3
20260508013709 18 37 1.6 6.4 0.00 0.00 0.00 68 1015.2
20260508013438 18 37 1.6 8.0 0.00 0.00 0.00 68 1015.0
20260508012707 18 37 1.6 8.0 0.00 0.00 0.00 68 1015.0
20260508012207 18 37 1.6 6.4 0.00 0.00 0.00 68 1014.9
20260508011707 18 36 1.6 4.8 0.00 0.00 0.00 69 1015.0
20260508011207 18 34 1.6 6.4 0.00 0.00 0.00 68 1014.8
20260508010703 18 30 1.6 8.0 0.00 0.00 0.00 69 1014.9
20260508010203 18 30 3.2 8.0 0.00 0.00 0.00 69 1014.7
20260508005702 18 28 4.8 12.9 0.00 0.00 0.00 70 1014.5
20260508005203 18 37 4.8 12.9 0.00 0.00 0.00 69 1014.3
20260508004203 19 116 3.2 11.3 0.00 0.00 0.00 69 1013.2
20260508003703 19 115 3.2 11.3 0.00 0.00 0.00 68 1013.1
20260508001657 19 86 4.8 12.9 0.00 0.00 0.00 68 1013.2
20260508001428 19 84 4.8 12.9 0.00 0.00 0.00 67 1013.9
20260508000926 19 90 4.8 11.3 0.00 0.00 0.00 67 1014.2
20260508000154 19 77 4.8 11.3 0.00 0.00 0.00 67 1014.4
20260507235655 19 74 4.8 14.5 0.00 0.00 0.00 66 1014.6
20260507235425 20 91 4.8 14.5 0.00 0.00 0.00 66 1014.7
20260507234652 20 78 3.2 14.5 0.00 0.00 0.00 66 1014.6
20260507234426 20 98 3.2 9.7 0.00 0.00 0.00 67 1015.2
20260507233651 20 84 3.2 9.7 0.00 0.00 0.00 67 1015.4
20260507233421 20 88 3.2 12.9 0.00 0.00 0.00 66 1015.7
20260507232648 20 61 4.8 16.1 0.00 0.00 0.00 66 1015.8
20260507232148 20 67 4.8 16.1 0.00 0.00 0.00 66 1015.9
20260507231649 20 75 4.8 16.1 0.00 0.00 0.00 66 1015.8
20260507231149 20 65 4.8 12.9 0.00 0.00 0.00 66 1015.7
20260507230647 20 53 4.8 16.1 0.00 0.00 0.00 66 1015.8
20260507230149 20 44 4.8 16.1 0.00 0.00 0.00 66 1015.8
20260507225641 20 69 4.8 11.3 0.00 0.00 0.00 67 1015.9
20260507225135 20 75 3.2 12.9 0.00 0.00 0.00 67 1016.0
20260507224629 20 25 3.2 12.9 0.00 0.00 0.00 66 1016.2
20260507224353 20 57 3.2 11.3 0.00 0.00 0.00 67 1016.1
20260507223617 20 58 4.8 11.3 0.00 0.00 0.00 66 1016.2
20260507223111 20 71 4.8 12.9 0.00 0.00 0.00 65 1016.2